Flag for Germany Weather past 2 weeks in Altenburg, Thuringia, Germany

Now
63 °F

Sunny.


Feels Like: 63 °F
Forecast: 48 / 64 °F
Wind: 9 mph from Southwest

Location: Altenburg Nobitz

Current Time: Aug 23, 2014 at 10:10:24 AM

Latest Report: Aug 23, 2014 at 9:20 AM


Visibility: 10 mi

Pressure: 29.92 "Hg

Humidity: 64%

Dew point: 50 °F

Location of AltenburgLocation

Historic Weather in Altenburg — Graph

°F

Altenburg temperature yesterday

Maximum temperature yesterday: 70 °F (at 12:50 PM)
Minimum temperature yesterday: 55 °F (at 8:20 AM)
Average temperature yesterday: 65 °F

Past Weeks' High & Low Weather Summary

 TemperatureHumidityPressure
High86 °F (Aug 10, 3:50 PM)88% (Aug 15, 3:50 PM)30.04 "Hg (Aug 15, 3:50 PM)
Low54 °F (Aug 20, 8:20 AM)37% (Aug 22, 6:20 PM)29.65 "Hg (Aug 13, 4:20 PM)
Average67 °F59%29.90 "Hg
* Reported Aug 8 8:20 AM — Aug 23 1:50 AM, Altenburg, Weather by CustomWeather, © 2014

Note: Actual official high and low records may vary slightly from our data, if they occured in-between our weather recording intervals... More about our weather records

Advertising

Altenburg weather history for previous 24 hours

 ConditionsComfort  
Time TempWeatherWind HumidityBarometerVisibility
1:50 AM
Aug 23
55 °FClear.6 mph67%29.92 "Hg10 mi
7:50 PM
Aug 22
63 °FSunny.7 mph49%29.92 "Hg10 mi
7:20 PM64 °FSunny.9 mph43%29.92 "Hg10 mi
6:50 PM64 °FPassing clouds.9 mph43%29.92 "HgN/A
6:20 PM66 °FSunny.13 mph37%29.92 "Hg10 mi
5:50 PM68 °FPassing clouds.9 mph40%29.92 "HgN/A
5:20 PM68 °FSunny.13 mph40%29.92 "Hg10 mi
4:50 PM68 °FSunny.13 mph43%29.92 "Hg10 mi
4:20 PM66 °FSunny.15 mph40%29.92 "Hg10 mi
3:50 PM68 °FSunny.14 mph40%29.95 "Hg10 mi
3:20 PM68 °FPassing clouds.10 mph40%29.95 "HgN/A
2:50 PM66 °FSunny.10 mph40%29.95 "Hg10 mi
2:20 PM66 °FPassing clouds.12 mph40%29.95 "HgN/A
1:50 PM66 °FSunny.15 mph43%29.95 "Hg10 mi
1:20 PM68 °FPassing clouds.12 mph40%29.95 "HgN/A
12:50 PM70 °FSunny.14 mph40%29.95 "Hg10 mi
12:20 PM66 °FPassing clouds.12 mph43%29.98 "HgN/A
11:50 AM66 °FSunny.16 mph40%29.98 "Hg10 mi
11:20 AM66 °FPassing clouds.14 mph40%29.98 "HgN/A
10:50 AM64 °FSunny.13 mph46%29.98 "Hg10 mi
10:20 AM64 °FSunny.8 mph52%29.98 "Hg10 mi
Weather by CustomWeather, © 2014

See weather overviewHow to use our weather pages